Regional Weather Roundup
Issued by NWS Newport/Morehead, NC

Current Version | Previous Version | Text Only | Print | Product List | Glossary On
Versions: 1 2 3 4 5 6 7 8 9 10 11 12 13 14 15 16 17 18 19 20 21 22 23 24 25 26 27 28 29 30 31 32 33 34 35 36 37 38 39 40 41 42 43 44 45 46 47 48 49 50
983
ASUS42 KMHX 180314
RWRMHX
WEATHER ROUNDUP FOR EASTERN NORTH CAROLINA
NATIONAL WEATHER SERVICE NEWPORT/MOREHEAD CITY NC
1100 PM EDT THU AUG 17 2017

NOTE: "FAIR" INDICATES FEW OR NO CLOUDS BELOW 12,000 FEET
WITH NO SIGNIFICANT WEATHER AND/OR OBSTRUCTIONS TO VISIBILITY

NCZ015>017-031-032-045>047-102-103-180400-
NORTH COAST

CITY           SKY/WX    TMP DP  RH WIND       PRES   REMARKS
EDENTON        CLOUDY    81  75  82 CALM      30.00R
ELIZABETH CITY MOCLDY    79  75  87 S7        29.99S
KITTY HAWK     CLOUDY    80  72  78 CALM      30.00R
MANTEO         CLOUDY    81  74  78 SW12      30.01R

$$

NCZ045>047-081-094-103-104-180400-
CENTRAL COAST

CITY           SKY/WX    TMP DP  RH WIND       PRES   REMARKS
FRISCO         PTCLDY    83  75  77 S9        30.02R

$$

NCZ095-097-098-100-101-180400-
SOUTHERN COAST

CITY           SKY/WX    TMP DP  RH WIND       PRES   REMARKS
BEAUFORT       PTCLDY    83  79  88 S8        30.01R
CEDAR ISLAND   NOT AVBL
JACKSONVILLE   CLOUDY    80  80 100 S5        29.99R
PINEY ISLAND   PTCLDY   N/A N/A N/A S5        30.00R
WILMINGTON     MOCLDY    78  77  96 NE3       29.99R


$$

NCZ011>013-027>030-043-044-078>080-089-090>093-098-180400-
COASTAL PLAIN

CITY           SKY/WX    TMP DP  RH WIND       PRES   REMARKS
AHOSKIE          N/A     74  74  99 CALM      29.98S FOG
CLINTON        PTCLDY    75  75 100 CALM      30.00R
ELIZABETHTOWN  NOT AVBL
GOLDSBORO      CLEAR     76  76 100 SE1       29.98S
GREENVILLE     PTCLDY    81  79  94 S5        30.01R
HAVELOCK       CLOUDY    80  77  90 SE6       30.01R
KENANSVILLE    MOCLDY    75  75 100 CALM      30.00R FOG
KINSTON        PTCLDY    80  78  95 CALM      30.01R
NEW BERN       CLOUDY    80  79  96 SE3       30.01R
RICHLANDS      CLOUDY    79  78  97 S5        30.00R
ROCKY MOUNT    CLOUDY    76  75  97 CALM      29.99S
WASHINGTON     PTCLDY    80  77  92 S6        30.00R
WHITEVILLE     NOT AVBL

$$

AMZ130-135-150-152-154-156-158-170-250-252-270-ANZ085-086-088-633-658-670-180400-
MARINE OBSERVATIONS

STATION/POSITION TIME  TEMP    WIND        PRES    WAVE   SWELL
                       AIR SEA DIR/SP/G            HT/PER HT/PER
                 (UTC) (F)     (DEG/KT/KT) (MB)    (FT/S) (FT/S)
CHESAPEAKE LIGHT NOT AVBL
64 E VA BEACH    0250   79 79  190/  6/  8 1016.8    2/ 7   2/ 7
DUCK             0248   81 76  170/ 10/ 13 1015.6
2 E DUCK         0300      79                N/A     2/ 6
OREGON INLET     0242   81 83  170/  9/ 12 1016.2
13E OREGON INLT  0248      80                N/A     2/ 6   2/ 6
HATTERAS CG      0248   83 85  170/  5/  9 1016.3
DIAMOND BUOY     0250   84 86  180/ 10/ 12 1016.3    2/ 7   2/ 7
CAPE LOOKOUT     0300   83     160/  9/ 10 1015.7
BEAUFORT LAB     0248   83 82  180/ 10/ 12 1015.5
30 SE NEW RVR IN 0208   80 84  170/  4/  6 1016.0
30 SE NEW RVR IN 0243      84                N/A     2/ 6
27 SE WRIGHTSVLE 0208   83 83  170/  8/ 10 1015.7
5 SE WRIGHTSVLE  0208   83 83  180/  8/ 12 1015.3
225 S CAPE HAT   0250   78 84  250/ 16/ 21 1017.8    2/ 5   2/ 9
41 SE CHARLESTON 0300   85 85  210/ 10/ 12 1015.7

$$




USA.gov is the U.S. government's official web portal to all federal, state and local government web resources and services.